Time,TemperatureF,DewpointF,PressureIn,WindDirection,WindDirectionDegrees,WindSpeedMPH,WindSpeedGustMPH,Humidity,HourlyPrecipIn,Conditions,Clouds,dailyrainin,SolarRadiationWatts/m^2,SoftwareType,DateUTC
2013-03-25 00:00:00,39.6,34.2,30.15,SSE,163,0.0,0.0,81,0.00,,,0.00,0,Wunderground v.1.15,2013-03-25 07:00:00,
2013-03-25 00:10:00,39.1,34.1,30.15,SSE,163,0.0,0.0,82,0.00,,,0.00,0,Wunderground v.1.15,2013-03-25 07:10:00,
2013-03-25 00:15:00,39.1,34.1,30.15,SSE,163,1.0,1.0,82,0.00,,,0.00,0,Wunderground v.1.15,2013-03-25 07:15:00,
2013-03-25 00:20:00,38.9,33.6,30.15,SSE,163,0.0,0.0,81,0.00,,,0.00,0,Wunderground v.1.15,2013-03-25 07:20:00,
2013-03-25 00:30:00,38.7,33.7,30.15,SSE,163,0.0,0.0,82,0.00,,,0.00,0,Wunderground v.1.15,2013-03-25 07:30:00,
2013-03-25 00:35:00,38.5,33.5,30.15,SSE,163,0.0,2.0,82,0.00,,,0.00,0,Wunderground v.1.15,2013-03-25 07:35:00,
2013-03-25 00:40:00,38.3,33.3,30.15,SSE,163,0.0,0.0,82,0.00,,,0.00,0,Wunderground v.1.15,2013-03-25 07:40:00,
2013-03-25 00:45:00,38.2,33.5,30.15,SSE,163,0.0,0.0,83,0.00,,,0.00,0,Wunderground v.1.15,2013-03-25 07:45:00,
2013-03-25 00:50:00,38.0,33.3,30.15,SSE,163,0.0,0.0,83,0.00,,,0.00,0,Wunderground v.1.15,2013-03-25 07:50:00,
2013-03-25 01:00:00,37.7,33.0,30.15,SSE,163,0.0,0.0,83,0.00,,,0.00,0,Wunderground v.1.15,2013-03-25 08:00:00,
2013-03-25 01:10:00,37.4,32.7,30.14,SSE,163,0.0,1.0,83,0.00,,,0.00,0,Wunderground v.1.15,2013-03-25 08:10:00,
2013-03-25 01:15:00,37.4,32.4,30.14,SSE,163,0.0,1.0,82,0.00,,,0.00,0,Wunderground v.1.15,2013-03-25 08:15:00,
2013-03-25 01:20:00,37.2,32.5,30.14,SSE,163,0.0,0.0,83,0.00,,,0.00,0,Wunderground v.1.15,2013-03-25 08:20:00,
2013-03-25 01:30:00,36.9,32.2,30.14,SSE,163,0.0,0.0,83,0.00,,,0.00,0,Wunderground v.1.15,2013-03-25 08:30:00,
2013-03-25 01:35:00,36.7,32.3,30.14,SSE,163,0.0,0.0,84,0.00,,,0.00,0,Wunderground v.1.15,2013-03-25 08:35:00,
2013-03-25 01:45:00,36.3,31.9,30.14,SSE,163,0.0,0.0,84,0.00,,,0.00,0,Wunderground v.1.15,2013-03-25 08:45:00,
2013-03-25 01:55:00,36.1,32.0,30.14,SSE,163,1.0,1.0,85,0.00,,,0.00,0,Wunderground v.1.15,2013-03-25 08:55:00,
2013-03-25 02:00:00,36.0,31.6,30.14,SSE,163,0.0,0.0,84,0.00,,,0.00,0,Wunderground v.1.15,2013-03-25 09:00:00,
2013-03-25 02:10:00,35.7,31.6,30.14,SSE,163,0.0,0.0,85,0.00,,,0.00,0,Wunderground v.1.15,2013-03-25 09:10:00,
2013-03-25 02:20:00,35.3,31.5,30.13,SSE,163,0.0,0.0,86,0.00,,,0.00,0,Wunderground v.1.15,2013-03-25 09:20:00,
2013-03-25 02:30:00,34.9,31.4,30.13,SSE,163,0.0,0.0,87,0.00,,,0.00,0,Wunderground v.1.15,2013-03-25 09:30:00,
2013-03-25 02:40:00,34.6,31.1,30.13,SSE,163,0.0,0.0,87,0.00,,,0.00,0,Wunderground v.1.15,2013-03-25 09:40:00,
2013-03-25 02:45:00,34.5,31.0,30.13,SSE,163,0.0,0.0,87,0.00,,,0.00,0,Wunderground v.1.15,2013-03-25 09:45:00,
2013-03-25 02:55:00,34.3,31.1,30.13,SSE,163,0.0,0.0,88,0.00,,,0.00,0,Wunderground v.1.15,2013-03-25 09:55:00,
2013-03-25 03:00:00,34.1,30.9,30.13,SSE,163,0.0,1.0,88,0.00,,,0.00,0,Wunderground v.1.15,2013-03-25 10:00:00,
2013-03-25 03:10:00,34.1,30.9,30.12,SSE,163,1.0,1.0,88,0.00,,,0.00,0,Wunderground v.1.15,2013-03-25 10:10:00,
2013-03-25 03:20:00,34.0,30.8,30.12,SSE,163,1.0,1.0,88,0.00,,,0.00,0,Wunderground v.1.15,2013-03-25 10:20:00,
2013-03-25 03:25:00,33.9,30.7,30.12,SSE,163,0.0,1.0,88,0.00,,,0.00,0,Wunderground v.1.15,2013-03-25 10:25:00,
2013-03-25 03:35:00,33.7,30.8,30.12,SSE,163,0.0,0.0,89,0.00,,,0.00,0,Wunderground v.1.15,2013-03-25 10:35:00,
2013-03-25 03:40:00,33.7,30.8,30.12,SSE,163,1.0,1.0,89,0.00,,,0.00,0,Wunderground v.1.15,2013-03-25 10:40:00,
2013-03-25 03:45:00,33.6,30.7,30.11,SSE,163,1.0,1.0,89,0.00,,,0.00,0,Wunderground v.1.15,2013-03-25 10:45:00,
2013-03-25 03:50:00,33.5,30.6,30.11,SSE,163,1.0,1.0,89,0.00,,,0.00,0,Wunderground v.1.15,2013-03-25 10:50:00,
2013-03-25 03:55:00,33.4,30.5,30.11,SSE,163,1.0,1.0,89,0.00,,,0.00,0,Wunderground v.1.15,2013-03-25 10:55:00,
2013-03-25 04:00:00,33.3,30.7,30.11,SSE,163,1.0,1.0,90,0.00,,,0.00,0,Wunderground v.1.15,2013-03-25 11:00:00,
2013-03-25 04:10:00,33.1,30.5,30.11,SSE,163,0.0,0.0,90,0.00,,,0.00,0,Wunderground v.1.15,2013-03-25 11:10:00,
2013-03-25 04:15:00,33.0,30.1,30.11,SSE,163,0.0,0.0,89,0.00,,,0.00,0,Wunderground v.1.15,2013-03-25 11:15:00,
2013-03-25 04:25:00,32.7,30.1,30.11,SSE,163,0.0,0.0,90,0.00,,,0.00,0,Wunderground v.1.15,2013-03-25 11:25:00,
2013-03-25 04:30:00,32.5,29.9,30.11,SSE,163,0.0,0.0,90,0.00,,,0.00,0,Wunderground v.1.15,2013-03-25 11:30:00,
2013-03-25 04:35:00,32.4,29.8,30.11,SSE,163,0.0,0.0,90,0.00,,,0.00,0,Wunderground v.1.15,2013-03-25 11:35:00,
2013-03-25 04:40:00,32.3,29.7,30.11,SSE,163,0.0,0.0,90,0.00,,,0.00,0,Wunderground v.1.15,2013-03-25 11:40:00,
2013-03-25 04:50:00,32.1,29.8,30.11,SSE,163,0.0,0.0,91,0.00,,,0.00,0,Wunderground v.1.15,2013-03-25 11:50:00,
2013-03-25 04:55:00,32.1,29.8,30.11,SSE,163,1.0,1.0,91,0.00,,,0.00,0,Wunderground v.1.15,2013-03-25 11:55:00,
2013-03-25 05:00:00,32.1,29.8,30.11,SSE,163,0.0,0.0,91,0.00,,,0.00,0,Wunderground v.1.15,2013-03-25 12:00:00,
2013-03-25 05:10:00,31.7,29.4,30.11,SSE,163,0.0,0.0,91,0.00,,,0.00,0,Wunderground v.1.15,2013-03-25 12:10:00,
2013-03-25 05:15:00,31.7,29.4,30.11,SSE,163,0.0,0.0,91,0.00,,,0.00,0,Wunderground v.1.15,2013-03-25 12:15:00,
2013-03-25 05:20:00,31.5,29.2,30.11,SSE,163,0.0,0.0,91,0.00,,,0.00,0,Wunderground v.1.15,2013-03-25 12:20:00,
2013-03-25 05:30:00,31.4,29.1,30.11,SSE,163,0.0,1.0,91,0.00,,,0.00,0,Wunderground v.1.15,2013-03-25 12:30:00,
2013-03-25 05:35:00,31.4,29.3,30.11,SSE,163,1.0,1.0,92,0.00,,,0.00,0,Wunderground v.1.15,2013-03-25 12:35:00,
2013-03-25 05:40:00,31.4,29.3,30.11,SSE,163,0.0,0.0,92,0.00,,,0.00,0,Wunderground v.1.15,2013-03-25 12:40:00,
2013-03-25 05:45:00,31.4,29.3,30.11,SSE,163,0.0,2.0,92,0.00,,,0.00,0,Wunderground v.1.15,2013-03-25 12:45:00,
2013-03-25 05:50:00,31.4,29.3,30.11,SSE,163,0.0,0.0,92,0.00,,,0.00,0,Wunderground v.1.15,2013-03-25 12:50:00,
2013-03-25 06:00:00,31.2,29.1,30.11,SSE,163,0.0,0.0,92,0.00,,,0.00,0,Wunderground v.1.15,2013-03-25 13:00:00,
2013-03-25 06:10:00,31.1,28.8,30.11,SSE,163,0.0,0.0,91,0.00,,,0.00,0,Wunderground v.1.15,2013-03-25 13:10:00,
2013-03-25 06:15:00,31.0,28.7,30.11,SSE,163,0.0,0.0,91,0.00,,,0.00,0,Wunderground v.1.15,2013-03-25 13:15:00,
2013-03-25 06:20:00,30.9,28.9,30.11,SSE,163,0.0,1.0,92,0.00,,,0.00,0,Wunderground v.1.15,2013-03-25 13:20:00,
2013-03-25 06:25:00,30.8,28.8,30.11,SSE,163,0.0,1.0,92,0.00,,,0.00,0,Wunderground v.1.15,2013-03-25 13:25:00,
2013-03-25 06:35:00,30.8,28.8,30.11,SSE,163,1.0,1.0,92,0.00,,,0.00,0,Wunderground v.1.15,2013-03-25 13:35:00,
2013-03-25 06:40:00,30.7,28.7,30.11,SSE,163,0.0,0.0,92,0.00,,,0.00,0,Wunderground v.1.15,2013-03-25 13:40:00,
2013-03-25 06:50:00,30.6,28.6,30.11,SSE,163,0.0,0.0,92,0.00,,,0.00,0,Wunderground v.1.15,2013-03-25 13:50:00,
2013-03-25 07:00:00,30.7,28.9,30.11,SSE,163,1.0,1.0,93,0.00,,,0.00,0,Wunderground v.1.15,2013-03-25 14:00:00,
2013-03-25 07:10:00,30.8,28.8,30.10,SSE,163,0.0,1.0,92,0.00,,,0.00,7,Wunderground v.1.15,2013-03-25 14:10:00,
2013-03-25 07:20:00,30.9,28.9,30.11,SSE,163,0.0,0.0,92,0.00,,,0.00,12,Wunderground v.1.15,2013-03-25 14:20:00,
2013-03-25 07:25:00,30.9,28.9,30.11,SSE,163,0.0,0.0,92,0.00,,,0.00,16,Wunderground v.1.15,2013-03-25 14:25:00,
2013-03-25 07:30:00,30.9,28.9,30.11,SSE,163,0.0,0.0,92,0.00,,,0.00,18,Wunderground v.1.15,2013-03-25 14:30:00,
2013-03-25 07:40:00,30.9,28.9,30.11,SSE,163,0.0,2.0,92,0.00,,,0.00,23,Wunderground v.1.15,2013-03-25 14:40:00,
2013-03-25 07:45:00,31.1,29.0,30.11,SSE,163,0.0,2.0,92,0.00,,,0.00,25,Wunderground v.1.15,2013-03-25 14:45:00,
2013-03-25 07:55:00,31.4,29.6,30.10,SSE,163,0.0,0.0,93,0.00,,,0.00,28,Wunderground v.1.15,2013-03-25 14:55:00,
2013-03-25 08:00:00,31.7,29.6,30.10,SSE,163,0.0,0.0,92,0.00,,,0.00,35,Wunderground v.1.15,2013-03-25 15:00:00,
2013-03-25 08:10:00,32.2,30.1,30.10,SSE,163,0.0,0.0,92,0.00,,,0.00,40,Wunderground v.1.15,2013-03-25 15:10:00,
2013-03-25 08:20:00,33.2,30.6,30.10,SSE,163,1.0,1.0,90,0.00,,,0.00,84,Wunderground v.1.15,2013-03-25 15:20:00,
2013-03-25 08:30:00,34.8,31.9,30.10,SSE,163,1.0,1.0,89,0.00,,,0.00,188,Wunderground v.1.15,2013-03-25 15:30:00,
2013-03-25 08:40:00,36.5,32.1,30.10,SSE,163,1.0,1.0,84,0.00,,,0.00,216,Wunderground v.1.15,2013-03-25 15:40:00,
2013-03-25 08:50:00,38.0,32.7,30.10,SSE,163,0.0,0.0,81,0.00,,,0.00,243,Wunderground v.1.15,2013-03-25 15:50:00,
2013-03-25 09:00:00,39.5,33.5,30.10,SSE,163,0.0,0.0,79,0.00,,,0.00,279,Wunderground v.1.15,2013-03-25 16:00:00,
2013-03-25 09:10:00,40.3,33.7,30.10,SSE,163,0.0,0.0,77,0.00,,,0.00,309,Wunderground v.1.15,2013-03-25 16:10:00,
2013-03-25 09:20:00,41.8,33.8,30.10,SSE,163,0.0,2.0,73,0.00,,,0.00,343,Wunderground v.1.15,2013-03-25 16:20:00,
2013-03-25 09:30:00,42.3,32.8,30.09,SSE,163,0.0,0.0,69,0.00,,,0.00,371,Wunderground v.1.15,2013-03-25 16:30:00,
2013-03-25 09:35:00,42.7,32.9,30.09,SSE,163,0.0,1.0,68,0.00,,,0.00,381,Wunderground v.1.15,2013-03-25 16:35:00,
2013-03-25 09:45:00,44.1,33.5,30.09,SSE,163,0.0,0.0,66,0.00,,,0.00,343,Wunderground v.1.15,2013-03-25 16:45:00,
2013-03-25 09:50:00,45.1,34.0,30.09,SSE,163,0.0,0.0,65,0.00,,,0.00,308,Wunderground v.1.15,2013-03-25 16:50:00,
2013-03-25 10:00:00,46.2,34.3,30.09,SSE,163,0.0,0.0,63,0.00,,,0.00,390,Wunderground v.1.15,2013-03-25 17:00:00,
2013-03-25 10:10:00,46.5,32.9,30.09,East,92,1.0,1.0,59,0.00,,,0.00,269,Wunderground v.1.15,2013-03-25 17:10:00,
2013-03-25 10:20:00,47.1,32.6,30.08,East,92,0.0,0.0,57,0.00,,,0.00,471,Wunderground v.1.15,2013-03-25 17:20:00,
2013-03-25 10:30:00,48.1,31.3,30.08,East,92,0.0,0.0,52,0.00,,,0.00,418,Wunderground v.1.15,2013-03-25 17:30:00,
2013-03-25 10:40:00,49.5,30.6,30.08,East,92,0.0,0.0,48,0.00,,,0.00,497,Wunderground v.1.15,2013-03-25 17:40:00,
2013-03-25 10:50:00,49.9,29.4,30.07,East,83,1.0,1.0,45,0.00,,,0.00,552,Wunderground v.1.15,2013-03-25 17:50:00,
2013-03-25 11:00:00,50.5,29.4,30.07,NNW,348,1.0,4.0,44,0.00,,,0.00,540,Wunderground v.1.15,2013-03-25 18:00:00,
2013-03-25 11:10:00,51.3,30.7,30.07,NNW,346,2.0,4.0,45,0.00,,,0.00,622,Wunderground v.1.15,2013-03-25 18:10:00,
2013-03-25 11:15:00,52.2,30.4,30.07,NNW,338,3.0,4.0,43,0.00,,,0.00,587,Wunderground v.1.15,2013-03-25 18:15:00,
2013-03-25 11:20:00,52.9,30.4,30.07,NNW,336,3.0,3.0,42,0.00,,,0.00,612,Wunderground v.1.15,2013-03-25 18:20:00,
2013-03-25 11:30:00,53.4,29.7,30.06,NW,323,2.0,2.0,40,0.00,,,0.00,664,Wunderground v.1.15,2013-03-25 18:30:00,
2013-03-25 11:40:00,54.3,29.2,30.06,NW,323,2.0,2.0,38,0.00,,,0.00,673,Wunderground v.1.15,2013-03-25 18:40:00,
2013-03-25 11:50:00,55.9,30.0,30.05,NNW,347,1.0,3.0,37,0.00,,,0.00,675,Wunderground v.1.15,2013-03-25 18:50:00,
2013-03-25 12:00:00,55.9,27.9,30.05,NE,38,2.0,2.0,34,0.00,,,0.00,564,Wunderground v.1.15,2013-03-25 19:00:00,
2013-03-25 12:10:00,56.5,29.1,30.05,NW,316,1.0,2.0,35,0.00,,,0.00,693,Wunderground v.1.15,2013-03-25 19:10:00,
2013-03-25 12:15:00,57.1,28.2,30.05,NNE,15,2.0,2.0,33,0.00,,,0.00,619,Wunderground v.1.15,2013-03-25 19:15:00,
2013-03-25 12:20:00,57.5,29.3,30.04,NNE,16,2.0,2.0,34,0.00,,,0.00,670,Wunderground v.1.15,2013-03-25 19:20:00,
2013-03-25 12:30:00,57.5,28.6,30.04,NW,325,3.0,3.0,33,0.00,,,0.00,626,Wunderground v.1.15,2013-03-25 19:30:00,
2013-03-25 12:35:00,57.8,29.6,30.04,NNW,331,2.0,3.0,34,0.00,,,0.00,561,Wunderground v.1.15,2013-03-25 19:35:00,
2013-03-25 12:40:00,58.1,29.1,30.03,NNW,333,2.0,2.0,33,0.00,,,0.00,633,Wunderground v.1.15,2013-03-25 19:40:00,
2013-03-25 12:45:00,58.4,29.4,30.03,NNW,333,1.0,2.0,33,0.00,,,0.00,640,Wunderground v.1.15,2013-03-25 19:45:00,
2013-03-25 12:55:00,58.4,29.4,30.03,WNW,299,2.0,2.0,33,0.00,,,0.00,608,Wunderground v.1.15,2013-03-25 19:55:00,
2013-03-25 13:00:00,59.0,29.2,30.03,North,360,2.0,7.0,32,0.00,,,0.00,696,Wunderground v.1.15,2013-03-25 20:00:00,
2013-03-25 13:10:00,59.8,29.1,30.02,WNW,292,3.0,3.0,31,0.00,,,0.00,649,Wunderground v.1.15,2013-03-25 20:10:00,
2013-03-25 13:20:00,60.3,30.3,30.02,ESE,105,1.0,2.0,32,0.00,,,0.00,519,Wunderground v.1.15,2013-03-25 20:20:00,
2013-03-25 13:25:00,61.2,29.5,30.02,WNW,285,1.0,4.0,30,0.00,,,0.00,587,Wunderground v.1.15,2013-03-25 20:25:00,
2013-03-25 13:30:00,61.1,28.6,30.02,SSE,153,2.0,4.0,29,0.00,,,0.00,589,Wunderground v.1.15,2013-03-25 20:30:00,
2013-03-25 13:40:00,60.8,29.1,30.01,NW,324,1.0,1.0,30,0.00,,,0.00,529,Wunderground v.1.15,2013-03-25 20:40:00,
2013-03-25 13:50:00,60.5,29.7,30.01,NNW,333,2.0,7.0,31,0.00,,,0.00,550,Wunderground v.1.15,2013-03-25 20:50:00,
2013-03-25 13:55:00,60.4,28.8,30.01,NNW,342,4.0,7.0,30,0.00,,,0.00,624,Wunderground v.1.15,2013-03-25 20:55:00,
2013-03-25 14:00:00,60.2,28.6,30.00,WNW,298,4.0,4.0,30,0.00,,,0.00,682,Wunderground v.1.15,2013-03-25 21:00:00,
2013-03-25 14:10:00,60.4,28.8,30.00,NNW,347,3.0,3.0,30,0.00,,,0.00,693,Wunderground v.1.15,2013-03-25 21:10:00,
2013-03-25 14:20:00,61.0,29.3,30.00,WNW,293,2.0,5.0,30,0.00,,,0.00,679,Wunderground v.1.15,2013-03-25 21:20:00,
2013-03-25 14:30:00,61.3,29.6,29.99,WNW,287,3.0,4.0,30,0.00,,,0.00,722,Wunderground v.1.15,2013-03-25 21:30:00,
2013-03-25 14:35:00,62.0,29.3,29.99,ENE,63,2.0,4.0,29,0.00,,,0.00,722,Wunderground v.1.15,2013-03-25 21:35:00,
2013-03-25 14:40:00,61.9,29.3,29.99,North,5,2.0,2.0,29,0.00,,,0.00,724,Wunderground v.1.15,2013-03-25 21:40:00,
2013-03-25 14:45:00,62.2,29.5,29.99,ENE,65,2.0,2.0,29,0.00,,,0.00,714,Wunderground v.1.15,2013-03-25 21:45:00,
2013-03-25 14:55:00,63.1,31.1,29.98,SE,132,2.0,2.0,30,0.00,,,0.00,679,Wunderground v.1.15,2013-03-25 21:55:00,
2013-03-25 15:00:00,62.8,29.2,29.98,ESE,116,4.0,7.0,28,0.00,,,0.00,659,Wunderground v.1.15,2013-03-25 22:00:00,
2013-03-25 15:10:00,62.3,30.4,29.98,SE,131,3.0,3.0,30,0.00,,,0.00,659,Wunderground v.1.15,2013-03-25 22:10:00,
2013-03-25 15:15:00,62.7,30.0,29.98,South,188,2.0,3.0,29,0.00,,,0.00,657,Wunderground v.1.15,2013-03-25 22:15:00,
2013-03-25 15:25:00,63.2,30.4,29.97,NNE,20,2.0,5.0,29,0.00,,,0.00,626,Wunderground v.1.15,2013-03-25 22:25:00,
2013-03-25 15:30:00,63.1,29.4,29.97,North,360,3.0,3.0,28,0.00,,,0.00,617,Wunderground v.1.15,2013-03-25 22:30:00,
2013-03-25 15:40:00,63.7,30.8,29.97,NNW,346,2.0,2.0,29,0.00,,,0.00,603,Wunderground v.1.15,2013-03-25 22:40:00,
2013-03-25 15:45:00,63.5,29.8,29.97,North,355,3.0,6.0,28,0.00,,,0.00,598,Wunderground v.1.15,2013-03-25 22:45:00,
2013-03-25 15:50:00,63.3,29.6,29.96,NNE,21,5.0,5.0,28,0.00,,,0.00,584,Wunderground v.1.15,2013-03-25 22:50:00,
2013-03-25 16:00:00,63.1,30.3,29.96,North,5,5.0,5.0,29,0.00,,,0.00,547,Wunderground v.1.15,2013-03-25 23:00:00,
2013-03-25 16:10:00,63.0,30.2,29.96,NNW,332,6.0,7.0,29,0.00,,,0.00,541,Wunderground v.1.15,2013-03-25 23:10:00,
2013-03-25 16:15:00,63.2,30.4,29.96,NNW,345,6.0,7.0,29,0.00,,,0.00,404,Wunderground v.1.15,2013-03-25 23:15:00,
2013-03-25 16:25:00,62.6,30.7,29.95,NW,317,5.0,5.0,30,0.00,,,0.00,292,Wunderground v.1.15,2013-03-25 23:25:00,
2013-03-25 16:35:00,62.6,30.7,29.95,North,355,4.0,6.0,30,0.00,,,0.00,227,Wunderground v.1.15,2013-03-25 23:35:00,
2013-03-25 16:45:00,62.5,30.6,29.95,West,273,4.0,4.0,30,0.00,,,0.00,255,Wunderground v.1.15,2013-03-25 23:45:00,
2013-03-25 16:55:00,62.4,30.5,29.95,NW,315,4.0,7.0,30,0.00,,,0.00,192,Wunderground v.1.15,2013-03-25 23:55:00,
2013-03-25 17:00:00,62.4,30.5,29.95,NNW,342,4.0,4.0,30,0.00,,,0.00,255,Wunderground v.1.15,2013-03-26 00:00:00,
2013-03-25 17:10:00,62.3,31.3,29.95,West,278,4.0,7.0,31,0.00,,,0.00,193,Wunderground v.1.15,2013-03-26 00:10:00,
2013-03-25 17:15:00,62.1,31.1,29.95,NNE,25,5.0,7.0,31,0.00,,,0.00,174,Wunderground v.1.15,2013-03-26 00:15:00,
2013-03-25 17:25:00,62.3,30.4,29.95,NNW,336,2.0,4.0,30,0.00,,,0.00,163,Wunderground v.1.15,2013-03-26 00:25:00,
2013-03-25 17:30:00,62.3,31.3,29.95,WNW,288,1.0,1.0,31,0.00,,,0.00,163,Wunderground v.1.15,2013-03-26 00:30:00,
2013-03-25 17:35:00,62.2,30.4,29.94,ESE,103,1.0,1.0,30,0.00,,,0.00,153,Wunderground v.1.15,2013-03-26 00:35:00,
2013-03-25 17:40:00,62.2,31.2,29.94,SE,136,1.0,5.0,31,0.00,,,0.00,141,Wunderground v.1.15,2013-03-26 00:40:00,
2013-03-25 17:50:00,61.8,30.8,29.94,SE,134,2.0,2.0,31,0.00,,,0.00,116,Wunderground v.1.15,2013-03-26 00:50:00,
2013-03-25 17:55:00,61.8,30.8,29.94,SE,138,2.0,2.0,31,0.00,,,0.00,107,Wunderground v.1.15,2013-03-26 00:55:00,
2013-03-25 18:00:00,61.8,31.6,29.94,SE,141,1.0,1.0,32,0.00,,,0.00,93,Wunderground v.1.15,2013-03-26 01:00:00,
2013-03-25 18:10:00,61.5,31.3,29.94,East,99,2.0,2.0,32,0.00,,,0.00,88,Wunderground v.1.15,2013-03-26 01:10:00,
2013-03-25 18:15:00,61.5,32.1,29.94,SE,144,1.0,2.0,33,0.00,,,0.00,79,Wunderground v.1.15,2013-03-26 01:15:00,
2013-03-25 18:20:00,61.5,32.1,29.94,ESE,121,1.0,1.0,33,0.00,,,0.00,77,Wunderground v.1.15,2013-03-26 01:20:00,
2013-03-25 18:25:00,61.6,32.2,29.94,ESE,120,1.0,1.0,33,0.00,,,0.00,98,Wunderground v.1.15,2013-03-26 01:25:00,
2013-03-25 18:30:00,61.8,30.0,29.94,East,96,1.0,1.0,30,0.00,,,0.00,72,Wunderground v.1.15,2013-03-26 01:30:00,
2013-03-25 18:35:00,61.7,31.5,29.94,ENE,62,1.0,2.0,32,0.00,,,0.00,65,Wunderground v.1.15,2013-03-26 01:35:00,
2013-03-25 18:45:00,61.3,31.2,29.94,NE,46,2.0,3.0,32,0.00,,,0.00,56,Wunderground v.1.15,2013-03-26 01:45:00,
2013-03-25 18:50:00,61.1,31.8,29.94,NE,46,2.0,2.0,33,0.00,,,0.00,49,Wunderground v.1.15,2013-03-26 01:50:00,
2013-03-25 18:55:00,61.1,31.0,29.94,NNW,344,2.0,2.0,32,0.00,,,0.00,39,Wunderground v.1.15,2013-03-26 01:55:00,
2013-03-25 19:00:00,60.9,31.6,29.94,NNW,339,2.0,2.0,33,0.00,,,0.00,30,Wunderground v.1.15,2013-03-26 02:00:00,
2013-03-25 19:10:00,60.0,33.6,29.94,West,275,2.0,2.0,37,0.00,,,0.00,23,Wunderground v.1.15,2013-03-26 02:10:00,
2013-03-25 19:15:00,59.4,33.8,29.94,NW,306,3.0,5.0,38,0.00,,,0.00,14,Wunderground v.1.15,2013-03-26 02:15:00,
2013-03-25 19:25:00,58.4,34.2,29.95,West,276,3.0,5.0,40,0.00,,,0.00,7,Wunderground v.1.15,2013-03-26 02:25:00,
2013-03-25 19:30:00,58.1,33.9,29.95,West,270,3.0,5.0,40,0.00,,,0.00,0,Wunderground v.1.15,2013-03-26 02:30:00,
2013-03-25 19:35:00,57.9,33.7,29.95,NW,318,3.0,5.0,40,0.00,,,0.00,0,Wunderground v.1.15,2013-03-26 02:35:00,
2013-03-25 19:45:00,57.7,33.5,29.95,NW,311,2.0,4.0,40,0.00,,,0.00,0,Wunderground v.1.15,2013-03-26 02:45:00,
2013-03-25 19:50:00,57.6,33.4,29.95,NW,311,1.0,1.0,40,0.00,,,0.00,0,Wunderground v.1.15,2013-03-26 02:50:00,
2013-03-25 20:00:00,56.8,38.3,29.95,SSE,159,1.0,1.0,50,0.00,,,0.00,0,Wunderground v.1.15,2013-03-26 03:00:00,
2013-03-25 20:10:00,56.0,39.1,29.95,SSE,159,0.0,1.0,53,0.00,,,0.00,0,Wunderground v.1.15,2013-03-26 03:10:00,
2013-03-25 20:15:00,55.6,39.2,29.96,SSE,159,1.0,1.0,54,0.00,,,0.00,0,Wunderground v.1.15,2013-03-26 03:15:00,
2013-03-25 20:20:00,55.2,38.4,29.96,SSE,159,1.0,1.0,53,0.00,,,0.00,0,Wunderground v.1.15,2013-03-26 03:20:00,
2013-03-25 20:25:00,54.9,39.0,29.96,SSE,159,1.0,1.0,55,0.00,,,0.00,0,Wunderground v.1.15,2013-03-26 03:25:00,
2013-03-25 20:35:00,54.2,38.8,29.96,SSE,159,1.0,1.0,56,0.00,,,0.00,0,Wunderground v.1.15,2013-03-26 03:35:00,
2013-03-25 20:40:00,53.9,38.6,29.96,SSE,159,1.0,1.0,56,0.00,,,0.00,0,Wunderground v.1.15,2013-03-26 03:40:00,
2013-03-25 20:45:00,53.7,39.3,29.96,SSE,159,1.0,3.0,58,0.00,,,0.00,0,Wunderground v.1.15,2013-03-26 03:45:00,
2013-03-25 20:50:00,53.5,39.1,29.96,SSE,159,1.0,1.0,58,0.00,,,0.00,0,Wunderground v.1.15,2013-03-26 03:50:00,
2013-03-25 20:55:00,53.3,39.3,29.96,SSE,159,1.0,1.0,59,0.00,,,0.00,0,Wunderground v.1.15,2013-03-26 03:55:00,
2013-03-25 21:00:00,53.0,39.0,29.97,SSE,159,0.0,0.0,59,0.00,,,0.00,0,Wunderground v.1.15,2013-03-26 04:00:00,
2013-03-25 21:05:00,52.9,39.0,29.97,SSE,159,1.0,2.0,59,0.00,,,0.00,0,Wunderground v.1.15,2013-03-26 04:05:00,
2013-03-25 21:15:00,52.6,39.5,29.97,SSE,159,1.0,1.0,61,0.00,,,0.00,0,Wunderground v.1.15,2013-03-26 04:15:00,
2013-03-25 21:20:00,52.4,39.3,29.97,SSE,159,0.0,1.0,61,0.00,,,0.00,0,Wunderground v.1.15,2013-03-26 04:20:00,
2013-03-25 21:25:00,52.2,39.1,29.97,SSE,159,0.0,1.0,61,0.00,,,0.00,0,Wunderground v.1.15,2013-03-26 04:25:00,
2013-03-25 21:30:00,52.1,39.5,29.97,SSE,159,0.0,1.0,62,0.00,,,0.00,0,Wunderground v.1.15,2013-03-26 04:30:00,
2013-03-25 21:35:00,51.9,39.3,29.97,SSE,159,0.0,1.0,62,0.00,,,0.00,0,Wunderground v.1.15,2013-03-26 04:35:00,
2013-03-25 21:45:00,51.7,39.1,29.97,SSE,159,1.0,2.0,62,0.00,,,0.00,0,Wunderground v.1.15,2013-03-26 04:45:00,
2013-03-25 21:50:00,51.5,39.3,29.97,SSE,159,1.0,1.0,63,0.00,,,0.00,0,Wunderground v.1.15,2013-03-26 04:50:00,
2013-03-25 21:55:00,51.3,39.1,29.97,SSE,159,1.0,1.0,63,0.00,,,0.00,0,Wunderground v.1.15,2013-03-26 04:55:00,
2013-03-25 22:00:00,51.2,39.0,29.98,SSE,159,1.0,1.0,63,0.00,,,0.00,0,Wunderground v.1.15,2013-03-26 05:00:00,
2013-03-25 22:10:00,51.1,38.9,29.98,SSE,159,0.0,2.0,63,0.00,,,0.00,0,Wunderground v.1.15,2013-03-26 05:10:00,
2013-03-25 22:15:00,51.0,38.8,29.98,SSE,159,1.0,2.0,63,0.00,,,0.00,0,Wunderground v.1.15,2013-03-26 05:15:00,
2013-03-25 22:20:00,50.9,39.1,29.97,SSE,159,1.0,1.0,64,0.00,,,0.00,0,Wunderground v.1.15,2013-03-26 05:20:00,
2013-03-25 22:30:00,50.6,39.3,29.98,SSE,159,0.0,0.0,65,0.00,,,0.00,0,Wunderground v.1.15,2013-03-26 05:30:00,
2013-03-25 22:40:00,50.5,39.6,29.98,SSE,159,1.0,2.0,66,0.00,,,0.00,0,Wunderground v.1.15,2013-03-26 05:40:00,
2013-03-25 22:45:00,50.4,39.5,29.98,SSE,159,1.0,2.0,66,0.00,,,0.00,0,Wunderground v.1.15,2013-03-26 05:45:00,
2013-03-25 22:50:00,50.2,39.3,29.98,SSE,159,0.0,0.0,66,0.00,,,0.00,0,Wunderground v.1.15,2013-03-26 05:50:00,
2013-03-25 22:55:00,50.0,38.7,29.98,SSE,159,0.0,0.0,65,0.00,,,0.00,0,Wunderground v.1.15,2013-03-26 05:55:00,
2013-03-25 23:00:00,49.9,39.0,29.98,SSE,159,0.0,1.0,66,0.00,,,0.00,0,Wunderground v.1.15,2013-03-26 06:00:00,
2013-03-25 23:10:00,49.6,39.1,29.98,SSE,159,0.0,1.0,67,0.00,,,0.00,0,Wunderground v.1.15,2013-03-26 06:10:00,
2013-03-25 23:15:00,49.5,39.4,29.98,SSE,159,0.0,1.0,68,0.00,,,0.00,0,Wunderground v.1.15,2013-03-26 06:15:00,
2013-03-25 23:20:00,49.3,38.8,29.98,SSE,159,1.0,1.0,67,0.00,,,0.00,0,Wunderground v.1.15,2013-03-26 06:20:00,
2013-03-25 23:25:00,49.1,39.0,29.98,SSE,159,1.0,1.0,68,0.00,,,0.00,0,Wunderground v.1.15,2013-03-26 06:25:00,
2013-03-25 23:30:00,48.9,38.8,29.98,SSE,159,0.0,0.0,68,0.00,,,0.00,0,Wunderground v.1.15,2013-03-26 06:30:00,
2013-03-25 23:35:00,48.8,39.1,29.98,SSE,159,0.0,0.0,69,0.00,,,0.00,0,Wunderground v.1.15,2013-03-26 06:35:00,
2013-03-25 23:40:00,48.5,38.8,29.98,SSE,159,0.0,0.0,69,0.00,,,0.00,0,Wunderground v.1.15,2013-03-26 06:40:00,
2013-03-25 23:45:00,48.4,39.1,29.98,SSE,159,0.0,1.0,70,0.00,,,0.00,0,Wunderground v.1.15,2013-03-26 06:45:00,
2013-03-25 23:55:00,48.1,39.5,29.98,SSE,159,0.0,0.0,72,0.00,,,0.00,0,Wunderground v.1.15,2013-03-26 06:55:00,